Wind_Gust
12 21 18 18 21 22 21 21 21 21 21 21 21 22 23 24 25 24 23 23 22 22 22 22 22 21 19 18 18 18 18 18 20 21 21 20 20 20 20 20 21 21 21 21 22 21 21 20 19 19 19 20 20 19 19 18 17 17 17 18 18 18 19 21 23 23 23 23 25 25 25 25 25 22 22 23 24 24 22 20 17 19 16 19 21
18 16 16 19 23 22 22 21 21 21 21 21 22 23 24 24 24 23 22 22 22 22 22 21 21 20 19 18 17 17 17 17 19 20 19 19 18 19 20 21 21 21 21 21 21 21 20 19 18 19 19 19 19 18 18 18 17 14 15 15 16 17 18 20 21 21 22 24 24 26 26 27 26 24 25 25 24 23 21 21 21 15 15 21 22
19 17 15 19 22 23 22 21 21 21 21 21 22 23 24 24 24 23 22 22 22 21 21 20 19 19 19 18 17 17 17 17 18 18 19 18 17 18 17 17 19 19 19 19 20 20 19 18 19 19 17 19 19 19 19 17 15 12 13 13 14 14 16 17 18 21 23 23 23 25 27 26 25 24 24 25 24 22 22 20 20 19 22 23 21
21 16 16 19 22 23 22 22 22 22 21 20 21 23 23 23 23 23 22 21 21 21 20 20 19 18 17 18 17 17 17 17 17 17 16 17 17 18 16 16 19 19 19 19 19 18 18 18 19 17 17 17 18 18 18 17 13 11 10 12 13 15 14 15 16 20 23 24 23 17 14 15 18 23 22 23 24 23 20 20 21 22 23 22 23
20 17 17 17 19 21 21 21 22 21 21 21 21 22 23 23 23 22 21 21 21 20 20 19 19 18 17 16 17 17 16 16 16 16 14 14 15 16 15 16 18 18 17 17 17 17 17 17 18 17 17 16 16 16 16 14 12 10 10 11 12 11 12 10 13 14 23 27 22 11 13 15 16 21 21 22 22 21 20 19 19 19 21 23 23
19 19 16 17 16 19 21 21 21 21 21 20 22 22 22 22 22 22 21 21 20 20 19 19 19 18 17 16 17 17 16 16 16 14 13 13 12 14 16 17 18 16 16 16 16 16 16 17 17 17 17 15 15 14 14 11 9 9 10 10 10 9 8 9 6 8 5 7 12 8 12 14 15 18 23 22 21 20 20 20 20 18 19 21 20
21 18 17 16 15 17 21 21 22 21 21 21 21 21 21 22 23 23 22 21 20 20 20 19 19 18 17 16 16 16 16 16 16 14 12 11 11 12 15 16 17 16 15 15 15 16 16 16 17 17 16 15 14 14 12 9 8 9 10 9 9 9 8 6 5 3 4 4 5 7 9 14 12 16 22 22 20 20 20 21 20 19 19 20 20
19 18 17 16 14 18 20 21 21 21 21 20 20 20 21 22 23 23 22 21 20 20 19 20 19 19 18 17 16 16 16 16 16 15 14 13 12 12 12 14 15 16 16 15 15 15 16 16 16 17 15 15 14 13 10 7 8 8 9 9 10 10 9 9 8 7 9 4 3 9 13 14 13 17 20 22 22 20 20 20 20 20 21 21 18
19 18 17 17 17 21 21 21 21 22 22 20 20 21 21 22 22 22 22 21 20 20 20 20 20 19 18 17 17 16 16 16 16 15 15 14 14 15 14 15 16 16 14 14 11 12 15 16 16 16 16 15 14 12 8 6 7 8 10 10 11 10 11 12 12 11 9 12 16 12 14 12 11 13 20 22 21 20 20 17 16 21 22 21 20
18 17 17 15 18 22 22 22 22 23 22 22 21 21 21 20 21 21 21 21 20 19 19 19 19 19 18 17 17 17 16 17 16 15 15 14 15 16 16 16 16 16 16 16 17 19 18 16 16 17 17 16 13 11 8 6 7 10 11 11 11 12 12 12 13 9 15 18 19 17 17 15 12 15 20 22 22 20 20 21 16 17 17 20 21
19 18 16 17 18 20 22 22 22 23 23 22 20 20 20 20 20 19 20 20 20 18 18 18 18 18 17 17 17 17 18 17 16 16 16 16 16 15 15 15 15 15 16 16 15 16 16 16 16 17 16 16 12 9 7 6 8 10 11 12 12 13 12 13 13 8 16 18 16 16 19 21 11 11 19 22 22 19 19 20 21 22 21 20 20
19 16 15 16 20 20 19 21 22 23 22 20 20 19 19 19 19 19 19 19 17 18 17 16 16 16 17 17 17 17 17 18 17 17 16 16 16 15 14 14 15 15 16 16 17 18 16 15 16 16 15 14 11 9 7 6 9 10 11 12 12 13 13 13 9 7 12 19 18 16 15 14 13 18 23 22 21 19 19 19 19 19 20 20 20
18 18 16 16 15 18 18 20 21 21 21 20 19 19 19 19 19 19 18 16 16 16 16 16 14 14 15 17 17 17 18 18 18 18 17 16 15 15 14 14 14 15 15 16 17 17 16 16 15 14 13 12 11 8 6 7 8 11 11 12 13 14 13 15 7 9 15 18 18 16 15 14 13 20 21 22 20 19 19 19 19 19 19 19 19
17 18 17 16 15 19 20 20 19 21 22 21 20 20 21 21 20 19 17 16 16 15 15 15 15 16 16 16 17 16 17 16 16 17 17 16 14 15 14 14 13 13 14 14 15 16 16 15 13 13 12 12 10 7 6 7 9 10 12 12 12 13 13 10 9 15 18 17 16 16 13 10 12 17 19 20 19 19 18 18 18 19 18 18 18
19 17 17 17 18 17 22 20 20 20 20 20 20 20 20 19 19 18 17 17 16 15 15 16 16 16 15 15 17 18 17 17 16 17 17 15 14 14 14 14 13 12 13 13 15 16 15 14 13 12 12 11 10 9 5 7 8 9 12 12 12 13 14 10 12 13 20 18 16 17 13 10 17 17 18 18 18 18 18 18 17 18 18 17 17
18 18 17 16 15 17 18 21 20 20 19 20 20 21 20 20 19 19 18 17 17 17 16 15 16 15 16 15 17 18 18 17 17 16 16 15 14 14 14 14 12 12 12 12 13 14 13 13 13 11 11 11 10 9 6 5 7 8 10 10 11 13 14 11 7 10 16 17 15 13 13 15 16 16 16 18 18 17 18 17 17 16 17 17 17
16 16 18 17 15 15 16 16 16 19 18 19 19 20 20 20 19 19 18 17 17 16 16 15 15 16 15 16 17 17 17 17 17 17 17 15 13 13 14 13 13 12 12 12 12 11 12 12 11 11 11 10 10 9 7 5 8 9 8 8 10 11 12 12 11 15 16 15 15 12 10 12 18 17 17 17 19 18 18 17 17 16 15 15 16
14 16 17 17 15 13 14 13 15 15 15 17 17 19 19 20 19 19 18 18 17 16 15 14 14 15 16 16 17 17 17 18 17 17 17 15 13 12 13 13 12 11 11 11 11 11 10 10 10 9 10 11 10 9 7 6 7 8 7 8 9 11 11 12 12 13 16 14 13 12 9 10 16 17 16 16 16 17 17 17 16 16 15 15 15
13 12 13 14 13 12 13 14 12 12 14 12 12 18 18 18 19 19 19 18 18 16 16 15 15 14 15 15 17 17 18 18 18 17 17 17 13 12 13 12 11 10 10 11 10 10 9 9 8 8 9 9 9 9 8 6 7 6 7 8 9 10 12 9 10 16 16 13 11 10 10 14 14 17 17 16 16 15 16 16 16 15 15 15 15
10 11 10 9 11 11 11 12 11 11 11 11 13 13 16 18 19 19 19 18 18 16 16 15 16 15 16 17 17 17 16 16 20 17 17 17 13 9 12 12 11 10 10 9 8 7 8 7 7 6 7 7 7 7 7 6 7 6 7 8 9 10 9 10 16 14 15 13 11 9 12 14 15 17 17 15 15 16 15 15 15 15 14 14 14
8 7 9 10 10 11 11 10 11 12 12 12 12 12 16 18 16 18 18 18 17 17 17 17 15 15 13 12 12 10 8 11 15 13 16 13 11 11 12 12 11 10 10 8 7 7 6 6 5 5 4 5 5 4 4 6 7 7 9 9 9 8 8 12 13 14 13 12 10 10 13 13 14 16 16 15 14 15 15 14 15 14 14 14 14
8 10 8 10 12 11 12 11 13 12 12 13 12 11 14 14 12 12 12 15 15 14 13 10 12 8 11 9 7 8 6 8 13 14 11 13 12 13 12 11 11 10 9 8 7 5 4 4 3 4 4 3 4 2 3 7 8 8 9 10 7 5 5 13 12 13 13 10 9 10 12 13 15 15 15 14 14 13 14 14 15 15 14 13 13
9 7 9 10 10 12 12 13 11 11 12 11 12 11 11 11 11 11 12 12 13 12 9 11 8 9 9 8 8 7 5 8 10 14 13 12 12 12 12 11 11 11 9 8 6 5 4 2 3 3 2 3 3 3 3 4 5 9 9 8 7 7 10 13 14 13 12 10 8 12 11 11 12 13 15 15 14 14 15 15 15 14 14 13 12
12 10 11 10 13 13 13 11 10 9 11 12 12 10 10 10 10 10 9 10 9 9 9 9 9 9 8 8 8 6 4 4 12 17 16 11 10 10 11 11 10 10 9 6 4 2 3 3 4 4 3 3 4 4 5 4 5 4 7 7 8 9 11 13 12 13 11 12 10 13 12 11 11 11 13 13 14 15 15 15 16 14 14 13 12
14 13 11 12 12 13 11 10 11 9 11 12 12 10 10 11 9 10 10 9 8 8 9 10 11 9 8 7 7 4 6 10 11 12 11 10 7 6 6 5 4 4 7 3 3 2 2 2 2 2 2 4 5 5 6 6 5 7 7 8 7 11 13 13 13 10 9 9 9 12 12 12 11 11 12 14 16 16 16 14 15 14 12 11 11
15 13 13 11 11 12 9 10 11 9 9 10 11 11 11 11 10 11 10 9 8 8 10 11 9 8 7 8 6 5 9 10 9 10 10 8 8 7 6 5 4 5 5 1 3 2 2 3 3 2 3 4 5 7 8 11 9 8 7 5 9 9 12 13 13 12 10 8 10 12 12 11 10 12 12 15 15 15 15 15 14 13 13 11 11
15 13 13 10 9 10 9 11 12 9 8 8 11 12 9 9 11 11 11 8 8 10 11 10 9 8 6 4 4 7 8 7 7 8 8 6 6 7 5 5 5 5 7 4 2 1 4 3 3 1 2 5 9 7 9 10 9 8 8 11 14 13 11 13 12 12 9 9 9 13 11 9 9 12 12 14 15 15 15 14 12 11 12 12 11
13 15 14 12 10 11 9 10 11 11 8 6 9 12 7 9 12 19 19 16 12 14 9 8 8 8 6 4 4 6 8 7 7 8 7 5 4 5 5 7 3 7 5 2 3 3 4 3 1 3 5 5 7 12 10 5 13 12 16 17 14 14 10 10 12 11 9 8 8 12 10 8 6 8 12 13 14 14 12 12 11 12 13 12 11
14 15 14 13 10 11 10 10 9 10 9 10 13 13 15 15 20 19 18 11 9 10 7 6 6 5 6 5 5 7 6 7 6 6 7 4 4 5 6 6 5 4 4 4 5 5 6 7 7 7 5 9 10 10 7 20 18 12 16 15 11 10 10 11 11 11 9 8 9 11 13 10 7 4 11 11 12 11 11 13 11 10 12 13 12
14 16 15 13 12 12 11 12 14 13 13 9 12 17 16 17 17 19 15 10 8 6 6 5 2 3 5 4 4 5 6 7 7 5 7 4 4 3 4 6 7 5 4 4 4 6 5 7 7 11 12 15 14 19 10 19 17 6 10 12 10 7 6 9 10 11 10 8 8 10 13 11 9 7 6 9 9 10 10 11 12 10 11 11 12
16 17 14 14 15 13 12 16 12 13 11 14 15 19 20 19 16 14 10 9 10 9 6 6 6 6 6 4 4 4 7 6 6 5 6 5 3 2 1 4 6 6 5 5 4 4 4 8 7 8 8 12 17 16 11 12 14 10 9 9 9 8 7 6 9 9 10 9 7 6 11 12 11 10 10 9 8 7 8 11 12 11 10 13 13
17 14 14 15 15 12 13 16 16 16 9 15 15 17 18 19 20 13 14 11 6 8 7 7 6 2 4 4 6 5 7 5 5 4 6 6 4 3 2 3 4 6 5 6 5 6 7 6 8 6 9 13 14 19 13 12 13 11 10 12 8 9 6 7 8 8 10 10 8 7 8 9 10 11 9 8 8 7 7 10 12 13 12 11 13
11 18 19 18 15 12 14 13 15 17 16 15 15 16 17 18 18 15 15 15 13 10 9 8 8 6 4 8 6 4 5 8 6 4 5 4 3 3 6 3 7 7 6 7 8 7 7 6 10 10 12 15 20 22 18 12 13 9 8 9 7 8 7 7 7 8 10 10 9 9 8 8 7 8 9 9 9 8 6 7 9 10 11 13 12
16 18 18 18 16 15 14 15 15 14 16 15 12 17 16 15 14 15 14 13 15 13 10 6 9 7 6 6 6 4 5 7 9 5 5 3 1 2 4 6 7 7 6 7 9 6 8 8 7 8 11 16 16 20 17 13 9 9 7 5 7 5 7 7 5 4 6 10 10 11 9 10 7 4 6 8 9 8 7 5 7 8 7 7 9
19 19 18 18 17 15 15 15 17 14 16 13 14 14 13 13 13 14 13 11 13 11 9 8 8 7 7 6 5 6 4 4 5 7 3 3 3 3 7 7 8 7 8 6 9 7 7 8 5 9 9 14 13 19 14 11 8 10 7 7 7 4 3 6 6 4 6 7 11 14 16 15 9 7 2 3 5 5 5 5 6 6 6 5 4
21 20 22 20 20 16 14 15 12 13 12 12 11 12 11 11 12 11 12 11 12 16 13 10 7 9 7 8 6 7 6 5 4 7 8 7 4 6 7 6 7 9 8 8 8 9 7 9 8 7 11 10 10 14 9 11 8 8 5 6 5 3 4 6 5 5 5 8 16 19 18 14 14 9 6 2 2 2 3 4 4 4 4 4 3
23 22 22 16 16 16 15 16 14 13 10 11 11 10 10 10 9 9 9 11 12 11 13 11 10 10 10 9 8 7 5 5 5 5 6 5 5 6 6 7 6 8 9 8 8 7 8 11 9 9 9 10 8 8 13 10 9 8 6 5 3 3 5 5 4 4 7 13 19 21 18 12 13 9 4 2 2 5 6 9 7 5 5 6 5
23 20 21 22 20 17 16 15 14 12 10 10 11 11 10 9 9 10 8 9 8 9 9 11 9 9 10 10 9 9 8 7 6 5 4 6 5 5 4 6 7 8 8 7 8 6 8 9 12 9 9 10 9 10 15 10 9 9 6 6 4 6 4 4 3 5 8 14 18 21 14 10 2 2 5 6 4 4 4 4 5 4 3 5 6
16 15 16 17 18 14 12 14 13 11 10 11 10 10 9 7 8 9 9 8 8 9 10 9 9 7 7 11 12 11 9 8 8 7 7 7 6 5 6 5 6 7 8 9 7 6 7 7 10 9 7 8 11 9 11 9 9 8 9 4 3 4 4 4 6 4 5 10 17 18 12 5 7 4 4 4 5 4 4 2 2 2 4 6 7
15 16 17 14 14 12 11 12 12 13 11 10 11 11 9 10 10 8 8 10 9 9 9 9 9 8 6 9 10 9 9 7 7 8 9 8 5 6 7 5 4 5 7 8 7 7 8 9 8 10 9 7 5 12 14 8 9 9 7 7 6 2 4 4 4 2 3 9 12 12 10 7 5 5 5 4 6 4 5 4 5 8 7 8 10
18 16 17 15 14 15 15 14 13 11 12 11 10 11 10 9 6 10 10 9 11 8 8 6 8 7 7 9 11 11 10 8 9 9 9 9 7 5 7 5 4 6 6 7 7 7 7 8 8 8 8 7 4 3 3 7 11 8 6 7 9 6 5 5 3 2 4 10 11 12 10 8 4 4 6 6 6 5 5 6 6 6 8 8 9
15 15 16 15 14 13 12 11 10 9 9 10 11 10 7 11 9 6 6 5 6 8 9 10 10 9 10 9 7 8 7 6 6 7 8 8 8 3 5 3 4 3 6 8 8 7 7 8 8 8 3 6 7 2 3 7 5 9 11 6 6 7 4 4 3 2 5 5 11 11 8 9 7 4 6 6 5 4 4 6 8 7 6 8 8
16 16 14 15 15 13 12 11 10 10 9 10 11 11 6 7 7 7 5 7 10 11 14 12 11 11 10 10 12 12 11 8 7 9 10 11 9 5 3 2 3 3 4 7 5 8 8 9 7 10 6 4 6 3 3 3 10 6 6 10 5 6 8 8 6 7 7 4 8 10 10 10 11 8 10 9 5 5 7 8 7 7 8 9 10
14 14 14 16 14 13 12 11 11 9 9 8 10 8 9 6 5 5 5 9 15 11 11 10 11 11 10 10 9 11 10 8 7 7 8 11 10 7 4 5 7 4 5 8 6 8 8 6 8 9 9 6 7 3 3 3 5 14 8 5 6 8 6 2 3 4 5 2 5 7 7 10 12 10 7 9 7 7 7 7 7 7 8 10 10
15 17 16 16 15 15 13 13 12 12 10 9 10 9 9 5 4 5 8 13 11 12 11 9 9 10 12 11 12 10 10 9 7 9 11 11 9 8 8 7 8 5 4 6 7 6 7 8 9 9 6 8 6 5 2 3 1 4 11 12 8 5 5 7 3 6 9 5 7 9 9 10 13 11 10 7 6 8 7 7 8 9 9 11 12
16 14 14 13 13 11 11 10 10 10 11 10 11 11 10 11 11 11 12 13 11 11 10 9 8 10 10 7 10 11 12 8 6 8 9 9 8 8 7 5 7 7 5 4 8 9 9 7 9 9 8 5 8 7 5 2 1 3 4 4 7 10 14 9 9 12 12 12 12 14 13 10 8 7 8 9 7 6 8 9 7 9 11 13 13
15 12 10 11 11 12 12 12 12 11 11 11 9 9 9 10 12 12 12 12 12 7 6 8 11 9 10 8 9 10 11 12 8 6 6 6 7 7 7 6 7 8 7 6 5 7 11 11 12 12 11 8 9 7 9 7 3 2 3 3 2 2 9 13 9 10 12 10 10 10 12 9 6 7 9 10 9 7 6 8 8 9 11 10 11
13 11 12 11 14 14 13 11 10 9 8 10 9 7 10 8 9 9 10 11 13 12 10 10 9 10 11 7 7 6 7 6 7 7 8 8 8 7 7 6 6 5 8 10 9 7 7 9 14 11 10 8 9 13 10 9 11 7 4 4 1 5 5 5 5 9 12 11 6 7 6 8 9 6 7 9 11 10 9 10 12 13 13 12 11
15 15 14 15 15 15 13 10 10 9 10 10 10 7 8 9 10 13 12 10 13 11 10 10 10 9 10 9 11 10 9 8 5 5 7 9 10 9 6 6 8 8 6 7 5 4 5 10 10 14 15 15 10 8 12 11 7 7 8 3 2 6 6 5 4 5 10 11 5 8 6 6 7 5 4 5 10 11 10 13 13 13 13 12 12
15 12 11 12 11 11 13 13 10 8 8 7 9 10 9 12 15 14 13 11 12 11 11 9 8 8 9 8 7 9 9 9 7 9 9 7 7 7 8 7 5 6 7 5 7 10 10 9 8 7 9 9 5 8 11 11 8 8 9 10 8 7 5 6 3 5 8 7 13 9 6 9 7 5 2 11 14 15 13 13 13 13 13 12 11
15 14 13 12 12 10 11 11 11 8 6 7 9 10 9 12 15 15 13 12 11 12 11 8 6 7 8 8 8 9 8 9 9 8 7 6 6 6 6 7 7 7 7 7 9 10 10 10 7 5 3 7 8 8 8 8 9 9 8 10 11 14 14 12 10 8 8 8 11 9 5 5 7 6 5 2 9 14 16 13 13 12 12 12 10
Wind_Speed
5 11 9 15 18 18 18 16 17 17 17 17 18 18 19 20 20 20 18 19 18 18 18 18 17 17 16 15 15 14 15 15 16 17 17 17 16 16 16 17 17 17 17 17 18 17 17 16 15 16 15 16 15 15 15 14 14 14 14 14 14 14 15 17 18 18 18 19 19 19 18 18 16 16 17 18 19 17 15 16 13 11 8 12 15
11 8 8 12 19 18 18 17 17 17 17 17 18 18 20 20 19 19 18 18 18 18 18 17 17 17 16 15 14 14 14 14 15 16 16 16 15 15 16 17 17 17 17 17 17 17 16 15 15 15 15 15 15 14 14 13 12 12 12 12 13 14 14 16 17 17 16 18 18 20 20 20 18 18 18 17 17 17 15 16 16 9 7 15 16
11 10 8 12 18 19 18 17 17 17 17 17 18 19 19 19 19 19 18 18 18 17 17 16 16 16 15 14 14 14 14 14 15 15 15 15 14 14 14 14 16 16 16 15 16 16 15 15 15 15 14 15 15 15 13 11 10 10 10 11 11 12 13 14 15 17 18 17 18 19 20 20 19 17 18 18 17 16 15 14 16 15 11 18 16
13 9 9 12 18 19 18 18 18 18 17 17 18 19 19 19 19 18 18 18 17 17 16 16 16 15 14 15 14 14 14 14 14 14 13 14 14 14 13 14 16 15 15 15 15 15 14 14 15 13 13 14 14 13 12 10 10 8 8 10 11 12 11 13 13 17 19 18 16 11 7 8 12 17 17 18 17 16 15 15 16 17 18 17 18
13 10 9 10 12 16 18 18 18 17 17 17 17 18 18 19 18 18 17 17 17 16 16 16 15 15 14 13 14 13 13 13 13 12 11 12 13 13 12 13 15 15 14 14 14 14 14 13 14 13 13 12 12 11 10 9 8 7 8 9 9 9 10 8 11 12 19 19 13 7 6 9 8 16 16 17 16 15 14 15 14 15 17 18 16
12 10 9 9 10 13 17 17 17 18 17 17 18 17 18 18 18 18 17 17 16 16 16 16 16 15 14 13 13 14 13 13 12 12 11 11 10 12 13 14 14 13 12 13 13 13 13 14 13 13 12 11 11 10 8 7 6 7 8 7 7 7 7 7 4 5 0 6 9 4 6 8 7 9 17 15 16 15 15 16 14 14 15 16 16
14 10 10 9 8 12 17 18 18 17 17 17 17 17 17 18 19 18 18 17 16 16 16 16 16 15 14 13 13 14 13 13 12 11 10 9 9 10 12 13 13 13 12 12 12 13 13 13 13 13 12 11 10 9 6 6 6 7 7 7 7 7 6 5 3 1 3 3 3 4 5 7 7 8 17 15 15 15 15 16 15 14 14 14 14
11 9 10 9 8 13 17 17 17 17 17 17 17 17 17 18 19 19 17 17 16 16 16 16 16 15 14 13 13 13 13 13 12 12 12 11 10 10 10 11 12 13 12 12 12 12 12 13 12 13 12 10 10 7 5 5 6 6 7 7 8 8 7 7 7 5 3 2 3 5 7 7 8 8 15 16 14 14 15 15 15 15 15 14 13
10 11 10 10 11 18 17 17 17 18 18 17 17 17 17 18 18 18 18 17 16 16 16 16 16 15 14 13 14 13 13 13 13 12 12 11 12 12 12 13 13 12 11 11 9 10 12 13 13 13 12 11 8 6 5 4 5 7 8 8 9 8 9 9 9 8 3 7 7 6 7 6 6 8 14 15 15 15 15 12 12 16 16 15 15
11 9 10 9 10 17 18 18 18 19 18 18 17 17 17 17 18 18 17 17 16 16 15 15 15 15 14 14 14 14 13 14 13 12 12 12 12 13 13 13 13 13 13 13 14 15 15 13 12 13 13 11 8 6 5 5 6 8 8 8 8 9 8 8 9 7 9 9 9 8 8 9 7 8 14 15 15 16 15 14 11 12 12 15 17
11 9 8 9 12 16 17 18 18 19 19 18 17 17 16 16 16 16 16 16 16 15 15 15 15 14 14 14 14 14 15 14 13 13 13 13 12 12 13 13 12 13 13 13 12 13 13 13 13 13 12 10 7 5 4 4 6 8 9 9 9 10 10 10 8 4 9 10 9 8 11 15 6 6 15 17 14 15 14 16 16 15 15 16 16
11 9 8 8 14 16 16 17 18 18 18 17 16 16 16 16 16 15 15 15 14 15 14 14 13 13 14 14 14 14 14 14 14 14 13 13 13 12 12 12 13 13 13 13 14 15 13 13 13 12 11 10 7 5 4 5 7 7 8 9 10 9 9 10 5 3 7 11 10 9 8 9 8 11 18 16 15 14 15 15 14 15 16 16 16
11 10 9 9 9 14 15 16 17 17 17 16 16 15 15 16 16 15 14 14 13 13 13 13 12 11 12 14 14 14 14 15 15 15 14 13 13 12 12 11 12 12 13 13 13 14 13 13 12 12 11 9 7 5 5 5 6 8 8 9 11 11 11 11 3 6 8 10 9 9 10 7 8 16 16 16 14 14 14 14 14 14 15 15 15
11 10 9 9 9 15 16 16 16 17 17 17 17 16 17 17 16 15 14 14 13 13 12 12 12 13 13 13 14 13 14 13 13 14 14 12 12 12 12 11 11 11 11 12 12 13 13 12 11 10 10 9 7 5 4 5 6 7 8 9 9 10 11 7 5 8 9 10 8 8 7 6 7 14 15 15 14 14 13 13 14 14 14 14 14
11 11 9 8 9 10 17 16 16 17 17 17 17 16 16 16 16 15 14 14 13 13 13 13 13 12 12 12 14 14 13 13 13 13 13 13 12 12 11 11 11 10 10 11 12 13 12 11 10 10 10 9 7 4 2 4 5 6 7 8 8 8 10 5 4 6 8 9 8 9 7 6 14 14 14 14 14 14 13 13 13 14 13 13 13
11 10 9 8 9 9 10 13 15 16 16 16 16 17 17 16 16 15 15 14 14 14 13 13 13 12 12 13 13 14 14 14 13 13 13 12 11 11 11 11 10 9 9 10 10 11 11 10 10 9 9 8 8 5 1 3 4 6 6 7 9 9 9 6 2 6 6 7 7 6 7 8 14 13 13 14 14 13 13 12 12 13 13 13 14
10 10 10 9 9 8 8 8 11 15 15 16 16 16 17 16 16 15 15 14 14 13 13 12 12 12 12 13 13 13 14 14 13 13 13 12 11 11 11 11 10 9 10 9 10 9 10 9 9 8 9 8 7 6 2 3 5 5 6 7 8 9 9 9 7 6 7 8 7 6 6 7 13 14 13 14 14 14 13 13 13 12 12 12 12
8 9 9 9 8 7 7 7 9 9 9 12 14 15 16 16 16 15 15 15 14 13 12 12 11 11 12 13 13 12 13 13 13 14 13 13 11 10 11 10 10 9 9 9 9 9 8 8 8 7 7 8 7 6 4 4 4 4 5 6 7 6 7 9 7 6 7 8 6 5 5 8 14 14 13 12 13 13 13 12 11 12 12 11 11
7 7 8 8 7 7 7 7 7 7 8 7 7 11 15 15 15 15 15 15 15 14 13 12 12 11 12 13 13 13 14 14 14 13 13 13 11 10 10 10 9 9 9 9 8 8 7 7 6 6 6 6 6 5 5 4 4 3 5 6 7 6 8 5 6 7 8 6 6 6 6 11 12 14 13 13 12 12 13 12 12 12 12 11 11
5 6 7 5 6 7 6 6 6 7 6 6 7 8 12 14 16 16 15 15 14 13 13 11 13 12 13 14 14 12 12 10 14 11 14 14 11 7 10 9 9 8 7 7 7 6 5 5 6 4 5 5 5 3 3 4 4 4 6 6 6 6 5 7 8 7 7 7 6 5 9 11 12 13 13 12 12 12 12 12 11 11 11 10 10
4 4 5 6 6 7 7 6 6 8 8 7 7 7 10 14 12 14 15 15 14 13 13 13 12 11 10 10 9 6 4 5 7 6 12 8 9 10 10 9 8 8 7 6 5 4 3 3 4 4 3 3 4 3 3 5 5 5 7 7 7 5 4 7 7 6 6 6 6 6 10 11 12 13 12 12 11 11 12 11 11 11 11 10 10
4 5 5 6 7 6 7 7 7 7 8 7 6 6 7 10 8 8 7 10 12 11 9 6 8 5 8 6 4 4 4 3 4 9 6 8 9 11 10 9 8 7 6 5 4 4 3 2 2 3 2 2 2 1 2 5 5 6 7 8 4 3 3 6 7 6 6 5 5 7 10 11 12 12 12 11 11 10 11 11 11 11 10 10 10
5 4 5 7 6 6 7 7 7 6 8 7 6 6 7 6 7 7 7 9 9 7 5 7 5 5 4 5 5 5 3 3 3 6 6 10 8 10 9 9 8 7 7 5 4 3 2 1 2 1 1 2 2 1 1 2 3 5 6 5 2 5 6 6 7 6 6 5 4 10 9 9 10 10 12 11 11 11 12 12 11 11 10 10 9
6 5 6 6 7 6 7 7 6 6 7 7 6 6 6 6 6 6 5 5 5 5 6 5 5 4 5 4 5 4 3 2 8 13 11 6 6 8 9 9 8 7 6 3 2 1 1 2 1 1 1 1 2 2 2 2 3 3 3 4 2 6 6 6 6 6 5 6 5 10 9 8 8 9 10 10 11 11 11 12 12 10 10 9 9
7 5 5 6 6 7 6 6 6 6 7 7 7 6 6 6 5 6 6 5 4 5 5 6 6 5 5 4 4 3 3 4 6 6 6 6 4 4 3 4 3 3 5 2 0 1 0 0 1 1 1 1 2 2 3 2 3 3 5 4 1 6 6 6 6 6 5 5 5 10 10 9 8 8 9 11 12 12 12 11 11 10 9 9 8
8 6 6 6 6 6 5 6 6 5 6 6 6 6 6 6 5 6 6 5 4 4 5 5 5 5 4 4 4 2 3 4 5 6 6 5 4 4 4 3 3 3 3 1 2 1 1 1 2 1 2 2 2 3 3 3 4 4 3 3 4 5 6 6 6 6 5 5 5 10 10 9 8 9 8 12 11 11 11 11 10 10 9 8 8
8 7 7 5 6 6 6 7 7 5 5 5 6 6 5 5 6 5 5 4 4 5 5 5 5 5 4 2 3 3 3 4 5 5 5 4 4 4 3 3 3 3 3 2 1 0 2 2 1 1 2 2 3 3 4 6 5 4 2 7 6 6 5 6 6 7 5 5 6 10 9 7 8 9 8 11 11 11 11 10 9 8 9 9 8
7 7 7 6 6 7 6 6 6 6 4 3 6 6 3 6 6 8 8 7 6 5 5 4 4 4 3 2 2 2 4 5 4 5 4 3 3 3 4 4 2 4 2 1 1 2 2 1 1 2 3 3 3 4 6 3 8 6 8 5 7 6 5 5 6 6 5 5 5 8 8 7 5 7 9 10 11 10 9 9 7 9 9 9 8
8 7 7 7 6 6 6 7 5 4 3 4 6 6 7 8 10 5 4 4 4 5 4 3 3 2 3 3 2 3 2 4 4 4 4 3 2 3 3 3 3 3 3 2 2 2 3 4 4 4 4 4 6 4 1 11 6 2 6 6 5 5 6 6 6 6 5 5 5 7 11 8 6 3 9 9 9 8 8 9 7 8 9 10 9
9 8 8 7 7 7 7 8 8 6 6 4 6 8 8 10 8 6 3 5 2 2 2 3 2 2 4 3 2 2 2 4 4 4 4 3 2 2 2 3 4 3 2 3 2 4 3 4 4 4 5 5 6 9 5 7 6 3 5 6 3 4 4 5 6 6 5 5 4 5 10 9 7 6 4 7 7 8 8 8 9 7 8 8 9
9 9 8 8 7 8 7 8 6 8 4 7 8 10 10 11 9 2 2 4 3 4 1 1 2 3 3 3 2 3 3 4 4 4 4 3 2 1 1 3 4 3 3 3 2 2 3 5 4 3 5 5 6 8 6 6 3 5 4 5 2 3 4 5 5 6 6 5 4 4 6 10 9 8 8 6 6 4 6 8 9 8 7 10 9
11 8 7 7 7 7 7 9 9 6 4 7 8 10 11 11 11 7 4 6 4 4 3 3 3 2 2 2 3 4 4 3 3 3 4 3 3 2 0 2 3 4 3 3 3 3 3 3 2 2 5 6 8 8 6 5 4 6 5 5 1 3 4 4 5 5 6 6 5 4 5 5 8 8 7 6 6 6 4 8 9 9 8 8 10
6 9 9 9 8 7 8 9 8 10 8 7 8 9 10 10 10 8 6 8 7 6 4 4 4 3 2 3 3 3 3 4 3 3 3 3 2 2 3 2 3 4 3 4 4 3 4 4 2 3 5 6 9 7 8 2 7 4 5 5 4 3 2 4 4 5 6 6 5 5 5 3 3 6 7 6 6 5 4 5 6 7 8 9 9
9 9 11 10 7 6 7 8 8 8 8 9 6 9 9 8 7 7 7 7 5 6 5 4 5 4 4 4 3 2 3 4 4 3 3 2 1 1 3 4 4 4 4 4 4 3 5 4 1 5 5 6 7 4 8 6 4 4 4 3 4 4 2 3 3 3 4 6 5 6 4 1 2 2 2 5 6 6 5 4 5 6 4 4 7
10 10 11 10 9 8 8 7 11 9 10 8 8 8 8 7 7 7 7 5 5 5 5 5 4 3 5 4 3 3 3 3 3 3 2 2 2 2 4 4 5 4 5 4 5 4 4 4 3 4 4 6 7 0 3 6 4 5 3 4 5 3 2 2 1 2 4 4 7 8 2 5 3 1 1 1 2 2 3 3 3 4 3 3 2
13 11 8 9 10 8 8 9 8 8 8 8 7 8 7 7 7 7 7 6 5 5 5 5 4 5 4 5 4 4 3 2 3 4 2 2 2 3 4 4 4 4 5 5 4 5 4 5 4 3 6 5 4 2 3 5 3 4 3 4 2 1 3 4 3 2 2 6 9 7 5 6 2 1 2 1 1 1 3 3 3 2 3 2 1
15 12 11 10 10 9 9 9 8 7 6 6 7 6 6 6 5 5 5 6 6 4 3 2 3 4 4 4 4 4 3 3 2 2 4 2 2 4 4 4 4 4 5 4 4 4 5 6 5 3 5 4 4 4 4 2 4 3 3 3 2 2 2 3 3 3 4 9 10 6 6 3 2 5 1 1 2 2 4 6 5 4 4 4 4
11 11 10 10 10 8 6 5 5 5 5 6 7 7 6 5 5 6 5 6 5 5 6 5 5 5 5 4 5 5 4 3 3 3 2 2 2 3 2 4 4 5 5 5 4 3 5 5 6 2 5 5 4 4 4 3 4 4 3 3 3 4 2 2 2 3 5 9 7 6 5 2 1 1 2 1 1 2 2 3 4 3 2 4 4
8 9 10 8 7 6 6 6 6 6 6 7 7 6 6 5 5 5 5 4 4 4 4 4 5 5 5 6 5 5 5 4 5 4 4 3 2 3 3 3 3 4 5 5 4 3 4 4 5 4 4 5 5 5 4 4 5 3 3 2 2 3 2 1 1 3 3 7 8 4 4 3 3 2 3 2 2 3 2 2 1 2 3 4 5
9 9 11 9 8 7 7 7 7 7 7 6 6 6 5 6 6 4 5 5 5 5 5 5 4 4 3 5 5 4 4 4 4 4 5 4 3 4 3 2 3 3 4 5 4 4 5 5 5 5 6 4 3 7 8 4 5 5 3 4 4 2 3 2 2 1 1 6 7 5 4 4 2 2 2 2 2 2 3 3 3 4 3 6 8
10 11 11 9 9 9 9 9 7 7 7 6 6 6 5 5 3 6 6 6 6 5 4 4 5 4 4 6 6 5 5 5 5 6 5 4 4 4 4 2 2 1 3 4 5 4 4 4 4 3 5 4 1 2 2 4 6 4 4 4 5 3 3 3 2 1 3 6 6 5 3 3 1 2 3 3 1 1 3 3 4 3 4 4 6
9 10 11 10 9 9 8 7 6 6 6 6 6 5 4 5 5 4 3 3 4 4 4 5 5 5 6 5 5 5 4 4 4 3 4 4 2 2 3 2 2 2 3 3 3 4 5 5 4 3 1 3 3 1 2 3 2 4 5 2 3 4 3 3 2 2 2 3 6 5 5 5 3 1 2 3 2 2 3 3 4 4 4 4 5
11 11 10 10 9 8 7 7 6 6 6 6 6 6 3 4 4 3 3 2 4 6 7 6 6 6 6 6 7 5 5 5 4 5 6 4 3 4 2 2 2 1 3 4 3 3 5 6 4 5 3 1 3 2 2 1 3 3 3 5 1 2 4 4 3 2 3 1 5 4 3 3 5 4 3 2 2 3 3 3 3 4 5 5 6
9 9 9 10 8 8 7 7 7 6 6 5 5 5 6 4 3 4 4 5 7 6 6 6 6 7 6 6 6 6 6 5 4 4 5 4 3 4 3 3 4 3 4 5 3 3 4 4 4 3 5 4 2 1 1 2 2 7 3 1 2 4 3 1 0 1 1 0 3 5 4 4 5 5 3 3 2 4 4 3 4 4 5 6 5
9 10 10 9 7 9 8 9 7 7 6 6 7 6 5 3 2 4 4 7 6 6 6 6 5 6 7 6 4 5 5 5 4 6 6 6 4 4 5 5 5 3 3 4 4 4 2 3 5 5 3 4 4 1 1 2 1 2 5 4 3 2 1 3 1 3 5 3 5 5 4 5 6 5 4 3 3 3 4 4 5 5 6 7 7
9 8 8 8 8 7 7 7 6 6 7 6 7 7 6 7 6 6 7 7 6 6 6 5 5 6 6 4 5 5 4 4 4 5 5 5 4 3 3 3 3 4 3 3 4 5 5 3 4 6 3 1 5 4 1 1 1 2 2 2 3 3 6 3 4 3 4 5 4 6 7 5 4 4 4 3 4 3 4 5 4 6 7 7 6
6 6 6 7 7 8 8 7 7 6 7 7 6 5 6 6 7 8 7 7 7 3 3 5 6 6 6 5 6 6 5 4 3 4 4 4 4 4 4 3 3 4 4 4 4 5 5 5 4 5 6 4 5 3 5 4 2 1 1 2 1 1 5 5 3 4 6 4 5 6 7 4 3 4 5 3 3 5 3 5 5 5 6 5 5
8 7 7 7 9 9 8 7 6 6 5 5 4 4 6 5 6 6 6 7 8 7 6 6 5 6 6 4 4 3 3 4 4 3 4 4 3 3 3 3 4 3 3 6 5 3 5 5 6 3 3 5 6 7 4 4 6 2 2 2 0 3 3 3 3 5 5 5 2 4 4 4 4 3 4 5 4 4 5 6 7 7 6 5 5
8 8 8 7 7 7 6 5 6 6 6 7 6 4 5 6 6 7 7 6 7 6 6 5 6 6 6 5 7 5 4 3 3 3 5 6 6 5 4 3 4 4 3 2 2 2 3 6 6 6 5 4 5 5 6 5 4 4 4 1 1 2 3 3 2 3 3 4 2 3 2 3 4 2 3 4 5 5 6 7 6 6 6 5 6
9 8 6 5 5 5 6 6 5 4 4 5 5 5 6 7 9 9 9 7 7 6 6 5 5 5 6 5 5 6 6 5 5 5 5 4 5 5 5 4 3 3 3 3 4 6 5 5 4 5 5 5 3 5 7 6 5 5 5 5 4 2 3 3 1 2 3 3 6 4 4 6 4 1 1 7 8 7 6 6 6 7 7 6 6
9 9 8 7 7 6 6 6 6 5 4 4 5 6 6 7 9 9 9 8 7 7 6 4 4 4 5 5 5 6 5 6 5 4 4 4 4 4 4 4 4 4 4 4 6 6 5 4 3 3 3 4 5 5 5 5 6 6 5 6 6 7 7 5 6 3 4 3 4 3 2 3 4 3 2 1 5 6 7 7 7 6 6 6 5
Wind_Direction
133 132 137 134 134 135 132 121 120 121 123 124 123 120 118 117 116 115 115 114 112 110 109 105 103 103 100 100 102 103 100 97 95 94 94 96 97 99 101 103 101 102 101 100 95 90 87 86 85 80 82 81 81 85 87 83 82 84 89 93 92 93 93 93 95 93 92 79 78 77 77 73 73 74 69 69 72 76 75 73 69 80 68 70 73
140 131 132 136 135 136 133 125 123 123 123 124 124 122 120 118 117 117 116 115 112 110 108 106 105 106 104 99 102 104 103 102 100 100 102 104 104 103 103 107 106 101 99 97 95 93 90 89 87 85 84 84 82 84 90 91 89 91 93 93 95 96 93 97 100 101 88 84 82 82 81 81 76 73 73 73 80 80 73 70 68 72 77 77 74
121 127 132 137 137 135 133 127 124 123 123 124 125 124 121 120 119 119 118 116 113 109 108 106 106 106 107 100 101 104 106 106 107 108 108 108 106 103 100 99 99 97 97 96 94 93 94 88 81 82 82 83 79 81 89 94 92 93 93 94 95 97 102 102 104 99 94 89 83 83 85 85 84 74 71 73 75 79 76 74 74 74 75 72 68
122 126 131 136 137 135 132 130 127 124 125 126 126 125 122 122 120 119 119 115 112 109 109 109 107 106 105 106 103 104 107 109 109 111 110 109 107 107 106 104 104 101 102 102 98 95 93 92 90 86 81 81 83 78 83 86 87 85 92 92 93 93 94 100 106 106 102 92 86 82 83 84 79 78 77 80 79 78 85 79 73 75 73 73 73
119 126 131 136 135 132 128 128 128 129 128 127 127 125 123 122 120 119 117 115 112 112 111 111 110 108 107 108 108 106 107 109 110 110 110 105 109 110 107 101 108 106 101 97 97 95 93 93 93 92 89 89 82 85 82 82 82 83 74 76 80 85 87 92 113 117 110 102 75 72 85 83 81 82 75 80 85 87 79 77 80 79 73 72 73
124 127 127 126 128 128 126 129 130 130 129 128 127 125 123 120 120 120 118 116 115 115 115 113 112 112 111 109 109 111 109 110 110 111 107 106 109 109 107 106 100 100 102 102 99 98 96 96 94 92 88 89 88 83 76 70 65 57 53 55 51 67 68 76 88 134 243 354 37 66 76 85 84 80 84 74 73 75 82 83 82 81 74 70 74
125 126 123 123 123 129 129 131 131 130 130 128 128 124 123 122 122 122 122 119 120 120 118 116 114 112 111 110 110 112 113 113 108 105 97 101 105 103 107 110 108 108 110 109 105 102 99 97 97 91 94 93 88 83 72 45 43 35 29 39 47 40 58 62 72 54 27 40 47 66 71 75 78 85 86 83 80 81 81 85 83 74 75 75 71
117 121 121 125 126 131 132 134 133 131 131 129 128 127 127 126 125 124 123 123 123 121 120 118 115 114 113 111 111 110 112 112 105 101 94 86 85 93 100 107 110 115 117 115 108 103 101 97 95 93 90 92 88 82 67 42 30 22 18 20 24 27 28 25 28 356 343 110 113 92 80 78 79 80 82 80 75 77 83 83 83 82 82 81 78
118 119 122 129 135 136 137 138 136 136 135 132 132 133 131 131 128 127 125 124 123 122 120 119 117 116 116 115 113 110 108 107 106 101 98 91 81 76 71 73 72 75 88 88 91 99 95 96 96 95 92 84 81 72 67 32 23 22 14 14 10 16 19 19 0 357 19 112 108 96 88 81 84 84 83 83 89 88 75 63 70 82 79 81 83
118 120 125 130 140 142 141 140 139 141 141 140 137 135 133 129 129 126 124 125 124 123 121 119 118 119 119 117 114 111 108 104 101 100 102 97 91 86 81 81 78 81 87 89 90 93 98 100 98 97 96 87 81 64 53 31 12 16 12 11 3 10 13 14 13 21 89 98 98 91 87 83 76 83 85 87 88 90 93 98 98 90 92 88 83
120 119 122 131 141 143 142 140 142 143 143 141 137 134 131 128 124 124 126 126 124 123 121 120 120 121 120 119 116 113 108 106 101 98 99 99 96 93 90 87 86 83 83 84 91 99 100 103 103 100 99 98 87 76 43 24 15 14 9 5 358 357 0 9 26 40 106 105 101 94 94 92 85 91 91 91 94 92 86 82 85 90 90 86 85
117 119 124 134 143 141 139 141 144 145 144 139 134 130 127 124 123 125 127 126 124 123 123 122 123 124 124 121 117 112 109 106 102 98 97 102 100 101 99 96 96 94 89 89 96 102 103 104 107 106 105 105 100 78 47 19 9 8 4 351 347 347 353 7 22 51 105 99 95 96 88 82 81 94 94 94 91 85 80 83 84 84 87 91 90
120 121 130 137 140 141 140 144 146 145 139 135 131 126 123 123 124 126 126 123 122 122 123 124 125 123 120 120 119 115 111 111 106 100 93 99 106 104 104 104 101 102 100 99 101 105 108 109 111 113 109 101 91 75 39 6 357 355 348 345 343 342 352 358 29 107 105 100 102 99 101 102 100 92 93 93 93 91 87 86 84 82 85 89 92
121 126 135 140 143 143 142 146 147 146 143 137 131 129 128 128 127 128 126 124 123 122 122 122 118 115 116 119 116 114 112 111 107 104 99 95 103 108 106 105 101 100 105 109 110 108 112 114 116 117 112 100 87 63 27 358 349 337 339 342 339 342 355 6 39 114 110 106 102 103 95 92 92 95 94 96 95 87 85 87 88 89 91 91 88
126 132 136 137 138 141 147 148 147 147 143 138 133 130 130 129 128 127 125 126 124 121 119 117 118 120 120 119 118 118 118 117 116 110 104 101 101 107 108 104 99 96 99 108 117 119 117 121 119 113 114 112 100 83 22 350 330 326 335 340 335 340 6 28 30 113 107 104 104 104 106 108 99 97 98 98 94 91 92 93 97 97 94 88 85
124 131 133 135 138 142 146 149 145 141 136 134 132 133 132 131 129 127 127 126 123 120 119 118 121 125 125 122 122 122 124 123 121 116 109 106 107 108 109 107 109 111 112 116 120 123 123 121 121 122 118 114 112 104 120 317 310 319 337 338 333 341 3 22 35 106 101 100 99 96 97 98 100 98 98 102 99 92 93 92 86 86 86 84 85
128 136 138 136 136 140 142 142 141 134 132 134 135 134 132 130 129 128 127 122 121 120 117 117 123 129 128 127 125 125 124 124 124 122 117 114 112 112 113 111 111 118 120 124 125 122 122 127 125 129 131 125 125 130 155 265 290 313 330 329 330 339 359 21 97 112 104 103 105 102 101 106 110 106 102 102 98 96 95 94 96 95 92 89 87
129 132 135 135 135 137 136 138 138 131 130 129 130 132 131 129 128 125 123 121 119 118 118 121 125 131 131 130 129 129 127 128 129 126 123 117 117 116 114 117 119 119 121 119 115 116 127 133 131 134 135 135 135 144 161 233 272 297 322 316 316 334 12 49 109 113 105 104 103 105 107 117 110 109 108 102 101 100 99 95 93 90 90 92 93
120 128 132 136 135 130 129 135 135 125 120 120 126 129 126 123 122 122 120 120 121 122 121 123 133 138 136 131 131 131 133 134 132 127 120 117 118 118 119 122 126 126 129 123 120 127 130 131 134 136 143 144 148 155 175 230 256 288 301 302 307 336 36 75 100 107 107 108 107 106 108 107 111 110 109 109 104 102 102 97 94 94 96 93 86
116 127 127 123 129 128 134 135 128 123 118 117 117 117 119 120 124 122 120 119 118 120 124 130 135 134 133 134 134 132 133 135 133 130 127 117 112 112 123 121 123 125 124 129 127 130 133 138 133 136 147 155 156 165 204 243 274 294 293 298 314 353 36 116 112 111 112 113 114 114 119 117 115 112 113 110 108 107 103 104 101 98 94 93 94
99 113 121 120 122 129 135 127 126 122 118 112 107 111 120 118 117 119 118 118 118 119 126 130 128 127 128 124 117 112 117 121 129 135 127 115 111 116 124 126 126 128 125 123 125 127 141 137 132 124 143 163 165 187 231 264 289 299 297 303 320 35 45 98 106 111 108 111 114 119 124 119 117 116 111 110 110 111 111 108 101 96 99 98 98
115 121 115 120 126 137 141 133 127 123 121 117 112 110 115 115 109 114 114 118 121 123 122 120 115 101 103 94 97 107 102 119 136 129 115 119 116 122 130 131 129 128 125 126 138 137 137 141 112 132 161 168 209 183 251 275 281 294 299 301 331 41 87 113 110 108 103 101 112 120 121 123 123 120 114 114 117 115 115 109 103 100 100 104 102
137 131 131 133 138 143 145 134 129 127 116 111 117 117 113 111 112 111 115 119 119 120 116 108 94 90 88 88 88 96 114 132 121 127 122 114 119 127 132 135 137 136 136 143 150 144 121 73 52 83 107 244 255 250 260 265 284 285 293 302 333 52 100 106 105 101 101 108 110 122 121 122 123 117 114 116 116 116 118 113 105 105 104 105 105
156 161 145 139 146 151 144 133 123 116 109 113 117 117 114 114 109 104 103 107 113 117 108 106 91 91 83 78 79 84 96 137 139 127 118 107 121 130 135 138 141 142 143 133 139 91 80 29 330 328 76 277 266 266 273 239 253 244 268 281 300 85 110 104 99 100 108 112 115 120 110 108 114 115 117 121 115 120 117 111 106 104 104 103 105
161 153 143 148 154 150 138 115 110 113 113 116 125 123 117 114 107 107 107 104 105 108 102 91 103 94 81 73 70 69 86 88 83 87 97 107 106 111 108 100 107 123 136 112 117 272 68 339 266 221 179 215 260 256 257 251 205 228 235 267 292 94 107 107 111 104 95 98 116 122 119 115 114 116 116 113 116 120 118 109 107 106 104 105 106
153 160 164 152 153 148 116 114 111 118 116 115 123 121 109 107 122 116 108 108 100 84 90 91 89 74 60 71 71 76 82 80 80 91 87 103 117 117 131 133 137 152 154 112 185 233 227 258 286 223 205 200 215 243 248 237 207 224 235 257 15 107 105 108 110 110 106 105 108 114 120 125 121 121 124 117 121 119 112 113 114 115 115 115 112
164 163 161 152 136 136 116 120 128 130 121 121 116 112 101 117 108 114 112 95 90 86 78 83 83 85 79 74 112 123 110 95 93 89 89 86 118 140 148 157 156 159 173 158 176 197 213 249 279 291 261 232 245 231 229 224 181 208 33 53 73 89 103 111 113 113 114 112 113 107 97 102 126 123 125 122 122 122 121 119 121 124 124 127 123
151 151 154 140 132 117 119 121 132 134 137 109 97 80 68 62 63 46 33 60 70 82 88 66 86 101 117 132 138 138 128 120 106 96 101 81 79 91 113 94 92 82 100 123 163 286 292 285 303 330 318 318 325 281 237 171 52 50 95 85 86 102 108 112 111 110 114 117 113 107 104 94 84 132 126 123 125 129 129 114 116 124 130 132 126
141 146 144 136 127 112 110 116 102 78 68 30 85 82 64 49 73 68 63 75 84 90 83 80 98 140 148 151 159 137 121 109 102 110 111 105 108 90 100 117 102 98 100 60 59 31 21 11 15 5 353 351 322 319 218 73 79 77 97 102 103 103 100 109 119 125 127 128 124 121 116 101 83 101 136 126 135 133 120 124 123 124 132 130 129
140 142 139 136 134 132 125 123 131 90 72 85 71 98 100 83 87 121 147 93 78 92 99 118 190 172 164 183 160 145 130 115 115 110 111 115 95 122 140 144 131 120 102 82 52 39 25 18 29 30 11 16 356 349 354 116 126 102 93 106 86 68 91 118 136 129 125 114 112 114 114 102 86 60 101 132 128 136 139 125 120 118 130 136 134
125 136 141 141 138 132 126 89 71 95 86 119 111 117 114 106 102 126 150 106 119 133 209 179 195 200 176 195 151 127 116 112 129 122 112 125 105 88 137 130 120 121 106 99 89 77 56 54 23 29 45 8 14 23 353 47 112 103 89 70 73 94 87 102 110 121 117 116 112 113 109 101 92 82 78 92 110 122 139 125 131 134 128 133 145
127 133 126 120 115 105 86 87 116 126 144 126 126 118 115 124 135 156 168 145 153 169 196 188 210 238 197 190 129 117 130 127 136 128 129 129 129 136 83 115 125 116 118 118 91 60 57 72 55 48 54 52 22 17 322 189 110 102 109 109 181 113 103 94 97 115 119 126 131 113 104 104 108 116 126 132 122 106 90 140 143 138 139 136 146
107 115 114 111 102 98 97 106 111 119 125 122 135 132 133 139 143 158 159 173 178 169 172 188 202 201 190 138 129 124 126 142 144 128 127 134 142 151 177 142 135 113 108 104 93 80 61 52 16 54 51 53 38 12 285 154 93 97 126 136 122 98 85 86 97 107 138 142 129 114 102 101 130 141 142 131 130 120 118 98 116 123 126 139 138
103 99 100 97 103 109 114 114 109 116 132 150 156 127 138 142 146 148 168 174 187 163 172 202 201 182 156 139 138 122 104 127 144 138 125 142 143 203 149 103 104 105 99 102 97 98 93 91 52 51 58 61 63 6 252 68 80 87 72 94 89 89 109 109 128 141 131 133 127 100 57 57 220 158 122 149 152 154 143 121 109 104 98 88 145
97 94 93 111 117 123 126 127 145 156 159 159 142 135 141 139 142 155 167 169 177 168 161 186 191 150 121 125 128 130 118 145 138 135 134 140 180 129 99 112 117 122 120 119 112 95 113 110 100 98 86 76 88 48 291 90 87 89 90 84 97 126 139 133 168 174 142 125 104 82 149 228 152 73 92 98 152 143 114 108 126 132 126 132 100
72 83 113 131 129 132 138 140 151 152 142 136 128 134 136 140 151 153 155 175 171 169 171 150 146 138 141 140 138 137 146 170 158 145 156 181 194 134 122 125 123 129 118 111 109 112 104 96 82 83 93 81 97 128 313 104 102 95 83 77 91 103 113 125 121 98 103 104 80 93 192 214 124 140 165 99 65 64 83 99 90 74 74 64 63
112 129 150 136 134 144 144 141 148 143 121 113 108 103 111 127 140 157 164 148 156 161 163 164 160 157 162 157 153 143 156 174 173 140 132 129 85 89 108 119 123 113 99 97 101 114 107 101 86 88 105 108 97 74 24 28 93 83 83 85 61 42 70 92 91 98 96 82 86 133 204 200 143 186 170 131 72 74 69 61 63 47 44 46 25
133 134 135 136 143 145 137 129 119 108 106 110 117 121 125 134 141 143 127 125 138 151 151 152 155 166 166 166 158 154 168 178 148 127 115 115 119 110 103 110 108 107 109 109 107 103 110 115 110 98 105 104 92 95 85 302 108 103 92 82 50 43 17 60 92 84 101 102 112 171 193 130 154 91 151 155 117 90 85 70 44 37 37 42 32
124 136 135 141 134 119 120 122 116 120 119 125 129 131 134 131 123 120 130 142 156 162 155 147 163 160 159 161 156 155 166 163 141 135 120 124 112 103 104 111 108 118 124 119 114 115 111 104 118 124 98 105 134 115 104 229 116 106 100 100 107 92 55 65 113 117 120 100 136 164 143 163 179 162 140 145 153 138 137 122 101 26 46 78 77
133 131 132 132 122 118 121 126 134 139 137 129 128 135 140 141 143 139 149 168 170 165 169 164 154 159 164 144 135 136 141 144 136 134 127 130 129 128 120 107 115 114 128 126 133 134 126 120 132 135 120 110 123 129 175 164 94 91 80 51 43 59 63 84 51 67 82 104 127 146 162 175 168 157 127 146 149 160 132 112 90 79 89 72 74
132 128 128 129 128 138 137 137 143 141 139 142 147 145 138 140 140 162 162 167 157 167 143 127 121 132 114 115 124 148 152 155 138 135 135 135 134 125 109 122 123 143 141 154 149 143 135 138 137 134 133 120 100 136 166 125 114 72 48 60 43 26 56 59 22 356 63 131 133 141 152 124 157 131 140 135 145 105 96 95 98 93 91 84 65
133 130 131 133 138 137 128 132 129 134 139 144 142 141 153 163 151 160 126 131 123 115 111 125 123 111 106 113 116 116 112 105 97 107 106 96 96 78 104 123 147 170 155 157 151 150 137 136 140 108 57 123 127 126 185 112 62 132 123 62 13 1 20 29 32 323 29 129 135 146 159 149 146 119 95 117 143 105 82 99 97 100 93 86 67
139 136 136 134 134 127 128 130 129 131 141 144 140 143 152 153 122 158 155 139 137 155 126 125 118 112 112 111 108 106 98 92 102 111 108 118 138 96 105 93 108 145 106 114 139 163 157 152 166 145 115 63 97 55 42 73 148 114 105 84 57 48 340 5 14 49 347 63 138 147 152 144 136 138 148 139 131 100 91 90 104 101 93 93 87
140 138 140 139 138 138 136 139 138 139 140 154 139 132 129 136 132 153 157 133 133 120 110 111 102 107 110 111 117 131 135 131 130 123 120 141 141 138 131 139 152 163 135 128 172 172 156 146 131 143 135 122 107 52 38 56 124 130 100 143 176 116 72 326 280 290 285 8 132 150 158 131 131 129 132 137 116 96 105 110 93 92 97 93 93
149 148 149 151 152 150 150 149 148 147 148 141 128 125 106 75 77 96 106 91 77 84 90 92 106 108 107 112 132 123 142 141 140 126 139 140 157 158 166 159 155 147 131 146 146 168 105 124 133 134 147 136 129 111 358 66 59 70 140 107 51 35 197 221 107 3 8 40 39 52 92 131 137 138 144 138 117 109 111 97 99 97 89 79 78
149 154 152 152 145 145 146 141 144 144 140 140 139 133 139 139 123 110 97 99 101 101 113 126 107 117 126 137 137 139 145 139 145 142 133 136 154 181 154 150 135 138 145 140 155 140 156 152 149 140 151 172 125 112 117 41 82 62 83 142 164 169 170 192 88 99 21 54 54 62 85 99 105 115 127 136 118 109 110 109 98 92 83 85 87
149 140 142 150 144 146 153 152 151 150 147 147 151 150 138 129 125 126 124 123 116 84 99 109 117 124 123 131 136 138 153 147 154 138 147 152 155 162 167 161 156 160 154 140 154 161 162 167 146 152 173 150 128 131 172 167 91 58 95 52 35 172 150 126 168 130 75 350 18 46 57 68 102 114 120 132 125 113 101 86 88 85 90 94 87
150 145 146 153 154 157 156 157 149 147 151 145 162 174 132 123 120 110 104 108 109 117 112 115 116 122 108 112 101 102 112 133 149 171 160 157 147 148 163 168 153 170 166 165 179 178 160 164 152 152 150 163 159 150 175 174 151 160 118 106 41 60 95 96 117 145 143 118 42 6 41 44 71 79 108 128 141 119 90 85 85 84 82 75 76
150 151 159 162 153 152 152 149 150 155 160 164 166 168 131 126 114 109 107 113 111 110 107 102 92 83 87 79 93 108 100 79 77 108 139 133 136 140 151 178 186 180 181 191 183 148 145 121 137 154 182 189 186 152 144 174 152 149 123 98 76 100 100 102 113 102 130 111 75 107 101 8 51 53 80 96 113 98 103 104 98 97 93 78 70
155 151 146 134 135 147 156 155 157 164 169 170 169 158 136 121 122 123 121 115 104 96 98 97 89 100 104 113 118 101 87 77 63 69 72 76 81 88 92 81 74 146 153 148 120 97 93 109 127 148 165 184 161 141 151 167 165 149 149 152 141 140 84 59 44 94 89 107 149 161 153 129 121 233 29 98 113 116 119 107 95 87 80 78 72
154 147 146 152 151 160 164 164 167 169 174 181 165 152 129 131 127 127 127 123 119 113 101 98 95 87 102 113 115 114 107 91 75 52 68 74 73 53 75 85 73 80 100 104 98 108 100 92 77 79 121 125 120 115 122 150 154 152 154 157 161 166 167 163 183 164 144 122 102 128 123 163 166 146 244 63 108 118 108 101 102 95 96 92 92